Terug naar catalogus

STARLINK-1502

ActiefCommunicatieVLEO
NORAD 45764·PAYLOAD·🇺🇸 United States

Gelanceerd Jun 13, 2020 vanaf Cape Canaveral Space Force Station

Loading…

Volgende Passages (komende 24 uur)

TLE

VersSource: CelesTrak SupGP

Epoch: Sep 14, 2026, 21:26 UTC

1 45764C 20038AL  26257.89354167  .00042828  00000+0  27279-3 0  2574
2 45764  53.0389   1.3085 0002162 318.4430 194.0932 15.75711188    10

Volg STARLINK-1502 in realtime met AllMySat

Download on the App Store